Regional Weather Roundup
Issued by NWS

Home | Current Version | Previous Version | Graphics & Text | Print | Product List | Glossary On
Versions: 1 2 3 4 5 6 7 8 9 10 11 12 13 14 15 16 17 18 19 20 21 22 23 24 25 26 27 28 29 30 31 32 33 34 35 36 37 38 39 40 41 42 43 44 45 46 47 48 49 50
000
ASUS43 KIND 141459
RWRIN

WEATHER ROUNDUP FOR INDIANA
NATIONAL WEATHER SERVICE INDIANAPOLIS IN
1000 AM EST THU DEC 14 2017

NOTE: "FAIR" INDICATES FEW OR NO CLOUDS BELOW 12,000 FEET WITH NO
SIGNIFICANT WEATHER AND/OR OBSTRUCTIONS TO VISIBILITY.

* - STATION DOES NOT REPORT WEATHER SUCH AS PRECIPITATION OR FOG.

+ - STATION NOT QUALITY CONTROLLED BY THE NATIONAL WEATHER SERVICE.
    USE DATA WITH CAUTION...ESPECIALLY DEWPOINT AND RELATIVE
    HUMIDITY OBSERVATIONS.

INZ001>003-010>013-019-020-141600-
NORTHWEST INDIANA

CITY           SKY/WX    TMP DP  RH WIND       PRES   REMARKS
GARY /AIRPORT/ PTSUNNY   23  14  68 W9        30.06R WCI  13
MONTICELLO +   CLOUDY    20  11  68 NE5       30.05R WCI  14
VALPARAISO     LGT SNOW  20  13  74 SE3       30.04R

$$

LMZ046-743>745-141600-
SOUTHERN LAKE MICHIGAN

STATION/POSITION TIME  TEMP    WIND        PRES    WAVE
                       AIR SEA DIR/SP/G            HT
                 (UTC) (F)     (DEG/KT/KT) (MB)    (FT)
BURNS HARBOR     1440   23     170/ 11/ 16 1017.3R
MICHIGAN CITY    1430   20     150/  7/  9   N/A

$$

INZ004-005-014>016-021>024-141600-
NORTH CENTRAL INDIANA

CITY           SKY/WX    TMP DP  RH WIND       PRES   REMARKS
GOSHEN         CLOUDY    11  10  96 CALM      30.02R
PERU/GRISSOM   CLOUDY    18  14  86 NE5       30.03R WCI  11
SOUTH BEND     CLOUDY    17  11  77 E5        30.03R WCI  10

$$

INZ006>009-017-018-025>027-141600-
NORTHEAST INDIANA

CITY           SKY/WX    TMP DP  RH WIND       PRES   REMARKS
FORT WAYNE     CLOUDY    18  10  71 N6        30.03R WCI  10
KENDALLVILLE + CLOUDY    11   8  85 CALM      30.00R

$$

INZ028-029-035-036-043>045-051>053-141600-
WEST CENTRAL INDIANA

CITY           SKY/WX    TMP DP  RH WIND       PRES   REMARKS
LAFAYETTE      MOSUNNY   25  12  58 NE7       30.06R WCI  17
TERRE HAUTE    CLOUDY    29  20  69 N6        30.03R WCI  23

$$

INZ030>032-037>040-046>048-054>057-064-065-141600-
CENTRAL INDIANA

CITY           SKY/WX    TMP DP  RH WIND       PRES   REMARKS
INDIANAPOLIS   PTSUNNY   26  13  57 NE9       30.03R WCI  17
-EAGLE CREEK   SUNNY     26  13  57 NE8       30.02R WCI  18
KOKOMO +       MOSUNNY   21  16  81 N8        30.04R WCI  11
MT COMFORT *+  SUNNY     23  19  86 NE9       30.02R WCI  13
SHELBYVILLE    MOSUNNY   24  15  68 NE9       30.01R WCI  14

$$

INZ033-034-041-042-049-050-058-059-141600-
EAST CENTRAL INDIANA

CITY           SKY/WX    TMP DP  RH WIND       PRES   REMARKS
MUNCIE         CLOUDY    22  15  75 N12       30.01R WCI  10
RICHMOND +     CLOUDY    21  18  86 N8        29.98R WCI  12

$$

INZ060-061-067>069-081>083-085>088-141600-
SOUTHWEST INDIANA

CITY           SKY/WX    TMP DP  RH WIND       PRES   REMARKS
EVANSVILLE     CLOUDY    31  21  66 N6        30.05R WCI  25
HUNTINGBURG +  CLOUDY    30  23  75 NW7       30.03R WCI  23

$$

INZ062-063-066-070>080-084-089>092-141600-
SOUTH CENTRAL AND SOUTHEAST INDIANA

CITY           SKY/WX    TMP DP  RH WIND       PRES   REMARKS
BLOOMINGTON    CLOUDY    29  18  63 NE8       30.00R WCI  21

$$




USA.gov is the U.S. government's official web portal to all federal, state and local government web resources and services.